Aérodrome :
LOGIN :

S'inscrire | Disclaimer

   EN    FR    IT 

 










Légende :    VFR   VFR Marginal   IFR   IFR Intensif   IFR Très Intensif
Visi : 
Plafond : 
>= 8 km
>= 3000ft
5 à 8 km
1000 à 3000 ft
1500m à 5 km
500 à 1000 ft
800 à 1500m
200 à 500 ft
< 800m
< 200 ft
Symboles :   Orages  Brouillard  Fortes neiges  Fortes précipitations  Vent > 20 kt
SIGMETs :   Divers  Orages  Givrage  Turbulence  Onde Orograph.  Cendres Volcan.







- Altitude de l'aérodrome : 125 ft
- Code IATA : MGL


EDLN - Mönchengladbach

DERNIER METAR :
  • 151250Z 14009KT 110V190 CAVOK 09/05 Q1025

METARs EXPIRÉS :
  • 151220Z 13010KT 100V160 CAVOK 09/05 Q1025
  • 151150Z 14008KT CAVOK 09/05 Q1025
  • 151120Z 13008KT CAVOK 09/06 Q1026
  • 151050Z 14007KT CAVOK 08/06 Q1026
  • 151020Z 13008KT 8000 NSC 08/05 Q1026

TAF TAF EDLN
Valide du 15 à 12h jusqu'au 15 à 21h UTC


151100Z 1512/1521 13007KT CAVOK
Pas de NOTAMs connus pour ce terrain.



MET'MAP, la Météo Aéronautique d'un coup d'oeil ! - Copyright ORBIFLY Décembre 2007 - Disclaimer

ORBIFLY MET'MAP TEAM :

Programmation & Développement : Alexandra Zaïnal
Conception & Développement : Baudouin d'Aumeries
Co-Programmation & Développement : Marc-Olivier Méhu
Soutien technique & logistique : Manuel Goepfert

Contact : metmap@orbifly.com




SOURCES & CREDITS :

   NOAA